[[{"header":{"parameterUnit":"m.s-1","parameterCategory":1,"la1":30.2991,"la2":30.254,"lo1":-89.0895,"lo2":-89.0444,"dy":0.0017,"dx":0.0017,"nx":28,"ny":28,"refTime":"2024-06-14T21:00:00:Z","depth":0,"parameterNumber":2,"parameterNumberName":"U-component_of_WINDS"},"data":[0,0,0,0,0,0,0,0,0,0,0,0,0,0,0,0,0,0,0,0,0,0,0,0,0,0,0,0,0,0,0,0,0,0,0,0,0,0,0,0,0,0,0,0,0,0,0,0,0,0,0,0,0,0,0,0,0,0,-3.9752,-3.9753,0,-3.9834,-3.9835,-3.9836,-3.9796,-3.9794,-3.9792,-3.979,-3.9871,-3.9875,-3.9879,0,0,0,0,0,0,0,0,0,0,0,0,0,-3.9557,-3.9561,-3.9752,-3.9753,-3.9754,-3.9834,-3.9835,-3.9836,-3.9797,-3.9794,-3.9791,-3.9789,-3.987,-3.9875,-3.988,0,0,0,0,0,0,0,0,0,0,0,0,0,-3.9641,-3.9562,-3.9752,-3.9744,-3.9744,-3.9834,-3.9835,-3.9837,-3.9797,-3.9794,-3.9791,-3.9788,-3.9868,-3.9874,-3.988,-3.9982,0,0,-3.9899,-3.9902,0,0,0,0,0,0,0,0,-3.9636,-3.9648,-3.9744,-3.9745,-3.9745,-3.9802,-3.9796,-3.9885,-3.9798,-3.9777,-3.979,-3.9786,-3.985,-3.9858,-3.988,-3.9985,-3.9989,-3.99,-3.9903,-3.9906,-3.9908,0,0,0,0,0,0,0,-3.963,-3.9644,-3.9784,-3.9746,-3.9746,-3.9735,-3.9744,-3.9813,-3.983,-3.9779,-3.9776,-3.9786,-3.985,-3.9874,-3.9882,-3.999,-3.99,-3.9905,-3.9909,-3.9911,-4.0181,-4.0184,0,0,0,0,0,0,-3.9625,-3.9639,-3.9782,-3.9787,-3.9682,-3.9741,-3.9751,-3.9787,-3.9829,-3.9833,-3.9789,-3.9784,-3.9865,-3.9875,-3.9884,-4.0004,-3.9906,-3.9912,-3.9915,-4.0177,-4.0182,-4.0185,0,0,0,0,0,0,-3.9621,-3.9638,-3.9779,-3.9713,-3.973,-3.9748,-3.9789,-3.979,-3.9814,-3.9837,-3.984,-3.9811,-3.9863,-3.9876,-3.9958,-4.0007,-3.9915,-3.992,-4.0173,-4.0179,-4.0183,-4.0246,0,0,0,0,0,0,-3.9616,-3.9637,-3.9677,-3.9714,-3.9733,-3.9852,-3.9792,-3.9794,-3.9825,-3.982,-3.9858,-3.9862,-3.9862,-3.9949,-3.9964,-4.0014,-3.9925,-4.0169,-4.0176,-4.0182,-4.024,-4.0253,-4.0264,0,0,0,0,0,-3.9609,-3.9691,-3.9679,-3.9696,-3.9783,-3.9855,-3.9866,-3.9865,-3.983,-3.9869,-3.9883,-3.9861,-3.9999,-3.9957,-3.9974,-4.0026,-4.0166,-4.0174,-4.0181,-4.0234,-4.025,-4.0264,0,0,0,0,0,0,-3.9658,-3.9695,-3.9683,-3.9779,-3.9814,-3.9848,-3.9897,-3.9882,-3.9927,-3.9919,-3.9915,-3.9924,-4.0009,-4.0026,-3.9979,-4.0126,-4.0077,-4.0088,-4.0112,-4.0127,-4.0139,-4.0132,-3.993,0,0,0,0,0,-3.968,-3.9736,-3.9765,-3.9848,-3.9866,-3.9879,-3.991,-3.9906,-3.9942,-3.9956,-3.9976,-4.0011,-4.0062,-4.0096,-4.0144,-4.0243,-4.0249,-4.0287,-4.0299,-4.0309,-4.0318,-4.037,-4.0386,-4.0211,-4.0211,-4.0211,0,0,-3.9726,-3.9754,-3.9789,-3.9858,-3.9885,-3.9941,-3.9891,-3.9954,-3.9995,-3.9965,-4.0043,-4.006,-4.0098,-4.0188,-4.0229,-4.0205,-4.0368,-4.0319,-4.0326,-4.033,-4.0379,-4.0396,-4.0411,-4.0216,-4.0215,-4.0214,0,0,-3.9839,-3.9866,-3.9937,-3.9965,-4.0006,-4.0014,-4.0031,-4.0067,-4.0077,-4.0156,-4.0134,-4.0183,-4.0271,-4.0299,-4.0324,-4.0447,-4.0427,-4.0463,-4.0526,-4.0576,-4.059,-4.0602,-4.0644,-4.0659,-4.0473,-4.0473,-4.0473,0,-3.9891,-3.9976,-3.9975,-4.0039,-4.0069,-4.0046,-4.0116,-4.0143,-4.0197,-4.0218,-4.0191,-4.0301,-4.0325,-4.0421,-4.045,-4.0473,-4.049,-4.0458,-4.0588,-4.06,-4.0612,-4.0651,-4.0667,-4.0477,-4.0476,-4.0476,-4.0476,0,-4.0037,-4.0096,-4.0148,-4.0202,-4.0238,-4.0305,-4.0313,-4.035,-4.0343,-4.0353,-4.0433,-4.0461,-4.0514,-4.0537,-4.0531,-4.0631,-4.0615,-4.0588,-4.0539,-4.0632,-4.0669,-4.0685,-4.0482,-4.0481,-4.048,-4.0479,0,0,-4.0182,-4.0234,-4.0253,-4.0277,-4.032,-4.0365,-4.0431,-4.0483,-4.0514,-4.0553,-4.0606,-4.0681,-4.0657,-4.0686,-4.0682,-4.0727,-4.082,-4.0694,-4.0695,-4.0715,-4.093,-4.0948,-4.0966,-4.0808,-4.0811,-4.0813,-4.0926,0,-4.0296,-4.0411,-4.0412,-4.0517,-4.0571,-4.055,-4.0606,-4.0638,-4.065,-4.0696,-4.0708,-4.0761,-4.0725,-4.0742,-4.0786,-4.0799,-4.0863,-4.0792,-4.0855,-4.0857,-4.0845,-4.0986,-4.1006,-4.1112,-4.0941,-4.0943,-4.0945,0,-4.0445,-4.0488,-4.0599,-4.0634,-4.0656,-4.0707,-4.0755,-4.08,-4.0835,-4.084,-4.0873,-4.0863,-4.0927,-4.0877,-4.0966,-4.0917,-4.0943,-4.0954,-4.0958,-4.0962,-4.0906,-4.0992,-4.1146,-4.1161,-4.0969,-4.0967,-4.0965,0,-4.0537,-4.0624,-4.0701,-4.0722,-4.0765,-4.08,-4.082,-4.0852,-4.0883,-4.0925,-4.0945,-4.0993,-4.1019,-4.1056,-4.1058,-4.1022,-4.1147,-4.1097,-4.1151,-4.1151,-4.1177,-4.1175,-4.1334,-4.1197,-4.1197,-4.1197,-4.1196,0,-4.0664,-4.0732,-4.0743,-4.079,-4.0865,-4.0865,-4.0939,-4.0955,-4.0984,-4.1033,-4.1017,-4.1063,-4.1065,-4.1111,-4.1114,-4.1185,-4.1197,-4.1202,-4.1201,-4.1202,-4.1202,-4.1218,-4.121,-4.1201,-4.12,-4.1199,-4.1198,0,-4.0779,-4.0789,-4.0871,-4.0905,-4.0915,-4.0969,-4.0997,-4.1041,-4.1051,-4.1113,-4.1128,-4.1143,-4.1197,-4.1204,-4.1267,-4.1268,-4.1354,-4.1347,-4.1342,-4.134,-4.1393,-4.1387,-4.1567,-4.159,-4.144,-4.1441,-4.1442,0,-4.0858,-4.091,-4.0949,-4.0981,-4.1003,-4.1055,-4.1086,-4.1088,-4.1121,-4.1165,-4.1204,-4.1256,-4.1298,-4.1385,-4.1401,-4.1449,-4.1441,-4.1501,-4.1448,-4.1447,-4.144,-4.1436,-4.144,-4.1511,-4.1512,-4.1514,-4.1515,0,-4.0997,-4.0999,-4.1046,-4.1095,-4.1133,-4.1172,-4.1207,-4.1234,-4.124,-4.1278,-4.1334,-4.1366,-4.1431,-4.1482,-4.1529,-4.1547,-4.1532,-4.1532,-4.1546,-4.1547,-4.1541,-4.1543,-4.1368,-4.1527,-4.1526,-4.1525,-4.1524,-4.1524,-4.1095,-4.114,-4.1174,-4.1227,-4.1254,-4.1287,-4.133,-4.1346,-4.1392,-4.1445,-4.1443,-4.1503,-4.1536,-4.1598,-4.1619,-4.1666,-4.1646,-4.1667,-4.1673,-4.1677,-4.1682,-4.1536,-4.1674,-4.1674,-4.1674,-4.1674,-4.1673,0,-4.1232,-4.1253,-4.1301,-4.1352,-4.1392,-4.1375,-4.1414,-4.1449,-4.1502,-4.1535,-4.1576,-4.1639,-4.1689,-4.1709,-4.1758,-4.1791,-4.1785,-4.1803,-4.18,-4.1804,-4.1698,-4.1679,-4.1807,-4.1807,-4.1807,-4.1807,-4.1807,-4.1807,-4.1307,-4.1381,-4.1387,-4.1474,-4.1494,-4.1554,-4.1577,-4.1607,-4.1633,-4.1704,-4.1746,-4.1759,-4.1786,-4.1836,-4.188,-4.1885,-4.1902,-4.1924,-4.1925,-4.1825,-4.1812,-4.1799,-4.1781,-4.1928,-4.1928,-4.2027,-4.2028,-4.2028]},{"header":{"parameterUnit":"m.s-1","parameterCategory":1,"la1":30.2991,"la2":30.254,"lo1":-89.0895,"lo2":-89.0444,"dy":0.0017,"dx":0.0017,"nx":28,"ny":28,"refTime":"2024-06-14T21:00:00:Z","depth":0,"parameterNumber":3,"parameterNumberName":"V-component_of_WINDS"},"data":[0,0,0,0,0,0,0,0,0,0,0,0,0,0,0,0,0,0,0,0,0,0,0,0,0,0,0,0,0,0,0,0,0,0,0,0,0,0,0,0,0,0,0,0,0,0,0,0,0,0,0,0,0,0,0,0,0,0,2.4316,2.4317,0,2.4424,2.4425,2.4426,2.4377,2.4374,2.4372,2.4369,2.448,2.4486,2.4491,0,0,0,0,0,0,0,0,0,0,0,0,0,2.4068,2.4073,2.4315,2.4317,2.4318,2.4423,2.4425,2.4426,2.4378,2.4374,2.4371,2.4368,2.4478,2.4485,2.4492,0,0,0,0,0,0,0,0,0,0,0,0,0,2.4176,2.4074,2.4315,2.4306,2.4307,2.4423,2.4425,2.4427,2.4378,2.4374,2.437,2.4366,2.4476,2.4484,2.4492,2.4624,0,0,2.4517,2.4521,0,0,0,0,0,0,0,0,2.417,2.4185,2.4306,2.4307,2.4308,2.4383,2.4378,2.4493,2.4379,2.4351,2.4369,2.4364,2.4451,2.4461,2.449,2.4629,2.4634,2.4518,2.4523,2.4527,2.4529,0,0,0,0,0,0,0,2.4162,2.418,2.4358,2.4308,2.4309,2.4298,2.4308,2.44,2.4422,2.4353,2.435,2.4363,2.4451,2.4483,2.4493,2.4636,2.4518,2.4525,2.453,2.4534,2.489,2.4895,0,0,0,0,0,0,2.4155,2.4174,2.4355,2.4361,2.4227,2.4305,2.4317,2.4363,2.4421,2.4426,2.4367,2.4361,2.447,2.4483,2.4496,2.4656,2.4527,2.4534,2.4539,2.4886,2.4891,2.4896,0,0,0,0,0,0,2.415,2.4171,2.435,2.4267,2.4289,2.4314,2.4365,2.4367,2.4399,2.4432,2.4435,2.4395,2.4468,2.4485,2.4593,2.4659,2.4538,2.4546,2.4881,2.4888,2.4894,2.4975,0,0,0,0,0,0,2.4143,2.417,2.422,2.4268,2.4293,2.4445,2.4369,2.4372,2.4413,2.4406,2.4459,2.4464,2.4466,2.4581,2.4601,2.4668,2.4552,2.4875,2.4884,2.4892,2.4967,2.4984,2.4999,0,0,0,0,0,2.4134,2.4238,2.4222,2.4244,2.4356,2.4449,2.4463,2.4463,2.4418,2.4469,2.4491,2.4462,2.4648,2.4593,2.4615,2.4685,2.4871,2.4881,2.4891,2.496,2.4981,2.4999,0,0,0,0,0,0,2.4195,2.4244,2.4227,2.435,2.4396,2.4441,2.4504,2.4485,2.4545,2.4536,2.4534,2.4546,2.4659,2.4683,2.462,2.4817,2.4753,2.4768,2.4797,2.4818,2.4833,2.4826,2.4559,0,0,0,0,0,2.4223,2.4294,2.4333,2.4437,2.4461,2.4479,2.4519,2.4516,2.4563,2.4582,2.4612,2.4659,2.4728,2.4774,2.4839,2.497,2.4982,2.503,2.5045,2.5058,2.5072,2.5145,2.5167,2.493,2.493,2.493,0,0,2.4281,2.4317,2.4362,2.4451,2.4486,2.456,2.4496,2.4577,2.4632,2.4595,2.4699,2.4723,2.4776,2.4896,2.4951,2.492,2.514,2.5072,2.5082,2.5088,2.5158,2.518,2.52,2.4937,2.4936,2.4935,0,0,2.4426,2.4459,2.4551,2.4588,2.4642,2.4654,2.4676,2.4724,2.4738,2.4843,2.4817,2.4884,2.5002,2.5042,2.5078,2.5239,2.5217,2.5261,2.5345,2.5416,2.5435,2.5451,2.5511,2.5532,2.5274,2.5274,2.5274,0,2.4491,2.4602,2.46,2.4684,2.4725,2.4695,2.4788,2.4824,2.4897,2.4927,2.489,2.5041,2.5074,2.5205,2.5244,2.5274,2.53,2.5255,2.5432,2.5449,2.5464,2.5521,2.5543,2.5279,2.5279,2.5278,2.5278,0,2.4681,2.4759,2.4826,2.4899,2.4947,2.5035,2.5047,2.5096,2.5089,2.5104,2.5213,2.5252,2.5326,2.5356,2.5349,2.5487,2.5466,2.5431,2.5367,2.5492,2.5546,2.5567,2.5287,2.5285,2.5283,2.5282,0,0,2.4867,2.4938,2.4963,2.4996,2.5055,2.5115,2.5203,2.5275,2.5318,2.537,2.5445,2.5547,2.5516,2.5556,2.5554,2.5616,2.5744,2.5574,2.5575,2.5606,2.5901,2.5928,2.5953,2.5729,2.5733,2.5737,2.5897,0,2.5017,2.517,2.5172,2.5314,2.5386,2.536,2.5436,2.5481,2.5499,2.5563,2.5582,2.5656,2.5608,2.5633,2.5693,2.5716,2.5804,2.5704,2.58,2.5803,2.5789,2.5981,2.6009,2.6159,2.5918,2.5921,2.5924,0,2.5212,2.5271,2.5421,2.5471,2.5501,2.557,2.5638,2.57,2.5751,2.5759,2.5806,2.5794,2.5885,2.5817,2.5943,2.5875,2.5915,2.5932,2.5938,2.5948,2.5872,2.5998,2.6206,2.6229,2.5956,2.5954,2.5951,0,2.5335,2.5452,2.5557,2.5586,2.5646,2.5696,2.5723,2.577,2.5815,2.5874,2.5903,2.5972,2.601,2.6065,2.6073,2.6022,2.62,2.6133,2.6211,2.6211,2.625,2.6248,2.647,2.6273,2.6273,2.6273,2.6272,0,2.5503,2.5596,2.5613,2.5678,2.5782,2.5783,2.5886,2.5909,2.5952,2.6021,2.6002,2.6068,2.6074,2.6142,2.6149,2.6254,2.627,2.6281,2.6282,2.6284,2.6283,2.631,2.6301,2.6279,2.6277,2.6276,2.6275,0,2.5658,2.5673,2.5786,2.5835,2.5849,2.5924,2.5966,2.6028,2.6044,2.6133,2.6153,2.6179,2.6258,2.6272,2.6365,2.6369,2.6495,2.6485,2.6478,2.6478,2.6556,2.6549,2.6805,2.6839,2.6618,2.6621,2.6622,0,2.5765,2.5836,2.5893,2.5938,2.5969,2.6042,2.6087,2.6092,2.614,2.6205,2.626,2.6338,2.64,2.6529,2.6556,2.6628,2.662,2.6705,2.6631,2.6631,2.6624,2.662,2.6628,2.6719,2.6722,2.6724,2.6725,0,2.5954,2.5959,2.6025,2.6095,2.615,2.6205,2.6257,2.6295,2.6307,2.6362,2.6444,2.6492,2.6588,2.6667,2.6738,2.6767,2.675,2.6748,2.6771,2.6774,2.6768,2.6774,2.6519,2.6742,2.6741,2.6739,2.6738,2.6738,2.609,2.6153,2.6203,2.6278,2.6318,2.6368,2.6429,2.6454,2.6521,2.66,2.6599,2.6689,2.674,2.6834,2.6869,2.694,2.6913,2.6944,2.6953,2.6961,2.697,2.6756,2.6953,2.6952,2.6952,2.6951,2.6951,0,2.628,2.6311,2.638,2.6454,2.6514,2.6491,2.6548,2.66,2.6679,2.6728,2.6791,2.6886,2.6962,2.6995,2.7071,2.7121,2.7115,2.7141,2.7138,2.7146,2.6989,2.6963,2.7145,2.7145,2.7145,2.7145,2.7145,2.7145,2.6386,2.6491,2.6502,2.6628,2.6659,2.6747,2.6782,2.6828,2.6867,2.6974,2.7038,2.7059,2.7103,2.7181,2.7251,2.7259,2.7288,2.7319,2.7323,2.7176,2.7157,2.7138,2.7114,2.7325,2.7325,2.7475,2.7476,2.7477]}]]